星链-2391 (STARLINK-2391 )

导读

STARLINK-2391是美国SpaceX公司星链(Starlink)星座中的一颗卫星,于2021年3月11日发射升空,属于星链项目第二阶段部署任务。它运行在近地轨道,依托星链组网为全球提供高速低延迟互联网接入服务,是马斯克打造卫星互联网星座计划的重要组成部分,助力宽带覆盖实现全球无盲区覆盖,截至2026年,仍在轨正常运行。

基本信息
目录编号:
47810
目录名称:
STARLINK-2391
国际标识:
2021-018Z
轨道中心:
EARTH
卫星名称:
星链-2391
卫星全名:
星链-2391 (STARLINK-2391 )
卫星状态:
在轨 (已飞行2003 天)
发射日期:
2021-03-11 UTC
国别 :
美国 (US)
星等 :
--
轨道信息
数据来源 国际轨道数据
星历时间: 2026-09-04T13:18:16+0800
12小时前
查看轨道信息
半长轴: 6848.828km
偏心率: 0.0001307
轨道倾角: 53.161°
近地点辐角 83.130°
升交点赤经 144.889°
平近点角 276.985°
近地点: 469.795km
远地点: 471.587km
周期: 94.012分钟
每日圈数: 15.317167
详细信息
固有亮度:
5
最大亮度:
2.5
卫星平台:
Starlink V1.0
覆盖范围:
全球
运营商:
太空探索技术公司
运营商所在国:
美国
制造商(研发单位):
太空探索技术公司
制造商所在国:
美国
使用方式:
暂无
卫星简介
星链(Starlink)计划是由太空探索技术公司(SpaceX)提出的一个巨型低轨卫星互联网星座项目,计划在2019年至2024年间在太空搭建由约1.2万颗卫星组成的“星链”网络,其中1584颗将部署在地球上空550千米处的近地轨道,并从2020年开始工作。该卫星仍在工作。
2D轨道图
3D轨道图
轨道高度分析图
轨道倾角分析图
轨道综合分析图
查看轨道综合分析图
交会数据列表
事件ID 空间交会对象 最接近时刻(TCA) 交会距离 交会风险概率(CRP) 交会风险指数(CRI) 操作
CDM_260906-134804-781006-048521
2026-09-06T
13:48:52+0000
2.162 km
极远距离
2.350544E-6 低风险 0.42
CDM_260906-084004-781006-884321
2026-09-06T
08:40:52+0000
2.645 km
极远距离
1.518653E-6 低风险 0.39
CDM_260905-130704-781006-931421
2026-09-05T
13:07:14+0000
2.728 km
极远距离
1.460612E-6 低风险 0.38
CDM_260906-030204-781006-829921
2026-09-06T
03:02:56+0000
2.867 km
极远距离
1.326326E-6 低风险 0.37
CDM_260905-205804-781006-890821
2026-09-05T
20:58:20+0000
2.864 km
极远距离
1.029669E-6 低风险 0.35